This is the latest recevied weather packets stored in our database for station/object W9PEM-13. If no packets are shown the sender has not sent any weather packets the latest 1 day(s).
| Time | Temp. | Humidity | Pressure | Rain* | Wind** | Luminosity | Snow |
|---|---|---|---|---|---|---|---|
| 1778064050 | 0.56° C | 91% | 981.4 hPa | 0 mm | - | 3 W/m² | - |
| 1778063949 | 0.56° C | 91% | 981.4 hPa | 0 mm | - | 3 W/m² | - |
| 1778063462 | 0.56° C | 91% | 981.3 hPa | 0 mm | - | 1 W/m² | - |
| 1778062262 | 0.56° C | 90% | 981 hPa | 0 mm | - | 0 W/m² | - |
| 1778060951 | 0° C | 90% | 981.1 hPa | 0 mm | - | 0 W/m² | - |
| 1778059839 | -0.56° C | 91% | 981.4 hPa | 0 mm | - | 0 W/m² | - |
| 1778059750 | -0.56° C | 91% | 981.4 hPa | 0 mm | - | 0 W/m² | - |
| 1778058018 | -0.56° C | 91% | 980.9 hPa | 0 mm | - | 0 W/m² | - |
| 1778057950 | -0.56° C | 91% | 980.9 hPa | 0 mm | - | 0 W/m² | - |
| 1778057479 | -0.56° C | 88% | 980.9 hPa | 0 mm | - | 0 W/m² | - |
| 1778057349 | -0.56° C | 88% | 980.9 hPa | 0 mm | - | 0 W/m² | - |
| 1778056807 | -0.56° C | 89% | 980.9 hPa | 0 mm | - | 0 W/m² | - |
| 1778055549 | 0° C | 89% | 980.8 hPa | 0 mm | - | 0 W/m² | - |
| 1778054986 | -0.56° C | 89% | 980.6 hPa | 0 mm | - | 0 W/m² | - |
| 1778054453 | 0° C | 89% | 980.6 hPa | 0 mm | - | 0 W/m² | - |
| 1778053874 | 0° C | 88% | 980.5 hPa | 0 mm | - | 0 W/m² | - |
| 1778053749 | 0° C | 88% | 980.5 hPa | 0 mm | - | 0 W/m² | - |
| 1778053185 | 0° C | 85% | 980.6 hPa | 0 mm | - | 0 W/m² | - |
| 1778053149 | 0° C | 85% | 980.6 hPa | 0 mm | - | 0 W/m² | - |
| 1778050933 | 0.56° C | 86% | 980.7 hPa | 0 mm | - | 0 W/m² | - |
| 1778050336 | 0.56° C | 84% | 980.7 hPa | 0 mm | - | 0 W/m² | - |
| 1778050149 | 0.56° C | 84% | 980.7 hPa | 0 mm | - | 0 W/m² | - |
| 1778047283 | 1.11° C | 83% | 980.7 hPa | 0 mm | - | 0 W/m² | - |
| 1778046216 | 2.22° C | 79% | 980.9 hPa | 0 mm | - | 0 W/m² | - |
| 1778045436 | 2.22° C | 78% | 981 hPa | 0 mm | - | 0 W/m² | - |
* Rain latest hour (hover to see other rain measurements)
** Current wind speed in m/s (hover to see current wind gust speed)